EXPRESS-AT1

Last updated on Sat Aug 15 2026 00:02:59 GMT+0000 (Coordinated Universal Time)

1 39612U 14010A 26226.15415959 -.00000066 00000+0 00000+0 0 9995 2 39612 0.4023 85.1131 0004862 67.5390 295.6504 1.00313583 45409
UTC large
Height (km)
Speed (km/s)
/
Latitude / Longitude
Inclination (degrees)
Orbital Period (minutes)
Azimuth
Elevation
Range (km)
Doppler Factor

Next 0 passes for location: London (51.5072 / 0.1276)

No passes found over London.
EXPRESS-AT1